| time (UTC) | temp F | wind direction | speed MPH | gust MPH | rain 1hr in | rain 24hr in | rain mn in | humidity % | barometer mb |
| 20260502203052 | 50 | 219 | 4.0 | 6.0 | 0.00 | 0.00 | 0.00 | 93 | 1012.5 |
| 20260502202541 | 50 | 229 | 3.0 | 5.0 | 0.00 | 0.00 | 0.00 | 93 | 1012.6 |
| 20260502202037 | 50 | 237 | 4.0 | 6.0 | 0.00 | 0.00 | 0.00 | 93 | 1012.6 |
| 20260502201541 | 50 | 213 | 4.0 | 8.0 | 0.00 | 0.00 | 0.00 | 93 | 1012.7 |
| 20260502201036 | 50 | 228 | 5.0 | 8.0 | 0.00 | 0.00 | 0.00 | 93 | 1012.9 |
| 20260502200537 | 50 | 215 | 6.0 | 8.0 | 0.00 | 0.00 | 0.00 | 93 | 1012.9 |
| 20260502200035 | 50 | 217 | 6.0 | 8.0 | 0.00 | 0.00 | 0.00 | 93 | 1012.8 |
| 20260502195537 | 49 | 173 | 6.0 | 7.0 | 0.00 | 0.00 | 0.00 | 93 | 1012.9 |
| 20260502195033 | 49 | 194 | 6.0 | 7.0 | 0.00 | 0.00 | 0.00 | 93 | 1013.0 |
| 20260502194541 | 49 | 184 | 5.0 | 8.0 | 0.00 | 0.00 | 0.00 | 92 | 1013.1 |
| 20260502194032 | 49 | 169 | 6.0 | 8.0 | 0.00 | 0.00 | 0.00 | 92 | 1013.1 |
| 20260502193532 | 49 | 193 | 5.0 | 10.0 | 0.00 | 0.00 | 0.00 | 92 | 1013.1 |
| 20260502193033 | 49 | 194 | 7.0 | 10.0 | 0.00 | 0.00 | 0.00 | 92 | 1013.2 |
| 20260502192532 | 49 | 198 | 6.0 | 9.0 | 0.00 | 0.00 | 0.00 | 92 | 1013.2 |
| 20260502192029 | 49 | 179 | 6.0 | 8.0 | 0.00 | 0.00 | 0.00 | 92 | 1013.2 |
| 20260502191537 | 49 | 205 | 4.0 | 6.0 | 0.00 | 0.00 | 0.00 | 92 | 1013.2 |
| 20260502191028 | 49 | 197 | 4.0 | 5.0 | 0.00 | 0.00 | 0.00 | 92 | 1013.3 |
| 20260502190529 | 49 | 196 | 4.0 | 6.0 | 0.00 | 0.00 | 0.00 | 92 | 1013.3 |
| 20260502190028 | 49 | 202 | 4.0 | 6.0 | 0.00 | 0.00 | 0.00 | 92 | 1013.3 |
| 20260502185528 | 49 | 191 | 4.0 | 5.0 | 0.00 | 0.00 | 0.00 | 92 | 1013.4 |
| 20260502185029 | 49 | 192 | 3.0 | 5.0 | 0.00 | 0.00 | 0.00 | 92 | 1013.4 |
| 20260502184536 | 49 | 188 | 4.0 | 6.0 | 0.00 | 0.00 | 0.00 | 92 | 1013.5 |
| 20260502184028 | 49 | 182 | 4.0 | 6.0 | 0.00 | 0.00 | 0.00 | 92 | 1013.5 |
| 20260502183531 | 49 | 169 | 4.0 | 7.0 | 0.00 | 0.00 | 0.00 | 91 | 1013.5 |
| 20260502183027 | 49 | 170 | 6.0 | 8.0 | 0.00 | 0.00 | 0.00 | 91 | 1013.5 |
| 20260502182531 | 49 | 165 | 7.0 | 8.0 | 0.00 | 0.00 | 0.00 | 91 | 1013.4 |
| 20260502182027 | 49 | 164 | 6.0 | 8.0 | 0.00 | 0.00 | 0.00 | 91 | 1013.5 |
| 20260502181532 | 49 | 167 | 7.0 | 9.0 | 0.00 | 0.00 | 0.00 | 91 | 1013.5 |
| 20260502181028 | 49 | 187 | 7.0 | 9.0 | 0.00 | 0.00 | 0.00 | 91 | 1013.5 |
| 20260502180529 | 49 | 180 | 7.0 | 9.0 | 0.00 | 0.00 | 0.00 | 91 | 1013.6 |
| 20260502164021 | 50 | 260 | 4.0 | 8.0 | 0.00 | 0.00 | 0.00 | 88 | 1013.9 |
| 20260502163521 | 51 | 255 | 4.0 | 8.0 | 0.00 | 0.00 | 0.00 | 88 | 1013.9 |
| 20260502163042 | 51 | 270 | 4.0 | 8.0 | 0.00 | 0.00 | 0.00 | 87 | 1013.9 |
| 20260502162524 | 50 | 258 | 5.0 | 8.0 | 0.00 | 0.00 | 0.00 | 87 | 1014.0 |
| 20260502162029 | 50 | 258 | 6.0 | 9.0 | 0.00 | 0.00 | 0.00 | 87 | 1013.9 |
| 20260502161521 | 50 | 264 | 7.0 | 9.0 | 0.00 | 0.00 | 0.00 | 87 | 1013.9 |
| 20260502161022 | 50 | 268 | 6.0 | 9.0 | 0.00 | 0.00 | 0.00 | 87 | 1013.9 |
| 20260502160526 | 51 | 266 | 5.0 | 9.0 | 0.00 | 0.00 | 0.00 | 88 | 1014.0 |
| 20260502152018 | 50 | 235 | 9.0 | 12.0 | 0.00 | 0.00 | 0.00 | 87 | 1014.3 |
| 20260502151518 | 50 | 236 | 10.0 | 13.0 | 0.00 | 0.00 | 0.00 | 87 | 1014.4 |
| 20260502151018 | 50 | 226 | 11.0 | 13.0 | 0.00 | 0.00 | 0.00 | 87 | 1014.4 |
| 20260502150518 | 50 | 222 | 11.0 | 14.0 | 0.00 | 0.00 | 0.00 | 87 | 1014.5 |
| 20260502130509 | 52 | 205 | 2.0 | 5.0 | 0.00 | 0.00 | 0.00 | 83 | 1014.1 |
| 20260502123504 | 51 | 310 | 5.0 | 9.0 | 0.00 | 0.00 | 0.00 | 84 | 1014.9 |
| 20260502123004 | 51 | 327 | 4.0 | 6.0 | 0.00 | 0.00 | 0.00 | 85 | 1014.8 |
| 20260502122504 | 50 | 321 | 1.0 | 8.0 | 0.00 | 0.00 | 0.00 | 85 | 1014.8 |
| 20260502122004 | 50 | 295 | 4.0 | 8.0 | 0.00 | 0.00 | 0.00 | 85 | 1014.9 |
| 20260502121503 | 51 | 302 | 4.0 | 7.0 | 0.00 | 0.00 | 0.00 | 84 | 1014.8 |
| 20260502121003 | 51 | 311 | 3.0 | 10.0 | 0.00 | 0.00 | 0.00 | 84 | 1014.9 |
| 20260502120503 | 51 | 323 | 4.0 | 10.0 | 0.00 | 0.00 | 0.00 | 84 | 1015.0 |
| 20260502115503 | 51 | 295 | 6.0 | 12.0 | 0.00 | 0.00 | 0.00 | 84 | 1015.0 |
| 20260502115001 | 51 | 288 | 7.0 | 13.0 | 0.00 | 0.00 | 0.00 | 84 | 1014.9 |
| 20260502114604 | 51 | 283 | 10.0 | 13.0 | 0.00 | 0.00 | 0.00 | 83 | 1014.7 |
| 20260502114059 | 51 | 281 | 6.0 | 10.0 | 0.00 | 0.00 | 0.00 | 84 | 1014.7 |
| 20260502113601 | 51 | 288 | 5.0 | 9.0 | 0.00 | 0.00 | 0.00 | 84 | 1014.6 |
| 20260502113056 | 51 | 295 | 4.0 | 8.0 | 0.00 | 0.00 | 0.00 | 85 | 1014.6 |
| 20260502112553 | 51 | 257 | 6.0 | 9.0 | 0.00 | 0.00 | 0.00 | 85 | 1014.6 |
| 20260502112052 | 51 | 266 | 6.0 | 13.0 | 0.00 | 0.00 | 0.00 | 85 | 1014.6 |
| 20260502111552 | 51 | 266 | 8.0 | 14.0 | 0.00 | 0.00 | 0.00 | 85 | 1014.5 |
| 20260502111054 | 51 | 272 | 11.0 | 14.0 | 0.00 | 0.00 | 0.00 | 85 | 1014.7 |
| 20260502110555 | 51 | 264 | 10.0 | 14.0 | 0.00 | 0.00 | 0.00 | 85 | 1014.5 |
| 20260502110052 | 51 | 269 | 9.0 | 14.0 | 0.00 | 0.00 | 0.00 | 85 | 1014.4 |
| 20260502105553 | 51 | 267 | 7.0 | 10.0 | 0.00 | 0.00 | 0.00 | 85 | 1014.4 |
| 20260502105055 | 50 | 269 | 6.0 | 8.0 | 0.00 | 0.00 | 0.00 | 85 | 1014.4 |
| 20260502104552 | 50 | 252 | 5.0 | 8.0 | 0.00 | 0.00 | 0.00 | 85 | 1014.4 |
| 20260502104051 | 50 | 256 | 5.0 | 8.0 | 0.00 | 0.00 | 0.00 | 85 | 1014.5 |
| 20260502103551 | 50 | 300 | 3.0 | 7.0 | 0.00 | 0.00 | 0.00 | 85 | 1014.3 |
| 20260502103050 | 50 | 286 | 4.0 | 8.0 | 0.00 | 0.00 | 0.00 | 85 | 1014.3 |
| 20260502102549 | 50 | 318 | 4.0 | 10.0 | 0.00 | 0.00 | 0.00 | 85 | 1014.2 |
| 20260502102051 | 50 | 285 | 5.0 | 18.0 | 0.00 | 0.00 | 0.00 | 85 | 1014.2 |
| 20260502101550 | 50 | 274 | 8.0 | 18.0 | 0.00 | 0.00 | 0.00 | 85 | 1014.2 |
| 20260502101053 | 50 | 247 | 9.0 | 18.0 | 0.00 | 0.00 | 0.00 | 86 | 1014.2 |
| 20260502100549 | 50 | 248 | 12.0 | 17.0 | 0.00 | 0.00 | 0.00 | 86 | 1014.0 |
| 20260502091044 | 50 | 245 | 9.0 | 15.0 | 0.00 | 0.00 | 0.00 | 83 | 1013.7 |
| 20260502090544 | 50 | 244 | 10.0 | 16.0 | 0.00 | 0.00 | 0.00 | 83 | 1013.8 |
| 20260502071038 | 50 | 255 | 7.0 | 13.0 | 0.00 | 0.00 | 0.00 | 81 | 1014.1 |
| 20260502070536 | 50 | 257 | 9.0 | 13.0 | 0.00 | 0.00 | 0.00 | 81 | 1014.1 |
| 20260502070047 | 50 | 257 | 8.0 | 14.0 | 0.00 | 0.00 | 0.00 | 81 | 1014.3 |
| 20260502065535 | 50 | 265 | 11.0 | 14.0 | 0.00 | 0.00 | 0.00 | 81 | 1014.4 |
| 20260502065035 | 50 | 249 | 8.0 | 15.0 | 0.00 | 0.00 | 0.00 | 81 | 1014.4 |
| 20260502064544 | 50 | 243 | 9.0 | 15.0 | 0.00 | 0.00 | 0.00 | 81 | 1014.4 |
| 20260502064035 | 50 | 268 | 9.0 | 15.0 | 0.00 | 0.00 | 0.00 | 81 | 1014.4 |
| 20260502063535 | 50 | 266 | 8.0 | 17.0 | 0.00 | 0.00 | 0.00 | 80 | 1014.4 |
| 20260502063036 | 50 | 247 | 13.0 | 17.0 | 0.00 | 0.00 | 0.00 | 80 | 1014.2 |
| 20260502062533 | 50 | 242 | 11.0 | 14.0 | 0.00 | 0.00 | 0.00 | 80 | 1014.2 |
| 20260502062031 | 50 | 252 | 9.0 | 14.0 | 0.00 | 0.00 | 0.00 | 80 | 1014.3 |
| 20260502061531 | 50 | 257 | 10.0 | 14.0 | 0.00 | 0.00 | 0.00 | 80 | 1014.3 |
| 20260502061030 | 50 | 252 | 8.0 | 13.0 | 0.00 | 0.00 | 0.00 | 80 | 1014.3 |
| 20260502060529 | 50 | 265 | 8.0 | 13.0 | 0.00 | 0.00 | 0.00 | 79 | 1014.5 |
| 20260502060030 | 50 | 274 | 9.0 | 13.0 | 0.00 | 0.00 | 0.00 | 79 | 1014.5 |
| 20260502055529 | 50 | 252 | 7.0 | 12.0 | 0.00 | 0.00 | 0.00 | 79 | 1014.5 |
| 20260502055028 | 50 | 236 | 10.0 | 12.0 | 0.00 | 0.00 | 0.00 | 79 | 1014.4 |
| 20260502054528 | 50 | 250 | 7.0 | 12.0 | 0.00 | 0.00 | 0.00 | 79 | 1014.3 |
| 20260502054027 | 50 | 253 | 8.0 | 13.0 | 0.00 | 0.00 | 0.00 | 79 | 1014.4 |
| 20260502053526 | 50 | 247 | 7.0 | 14.0 | 0.00 | 0.00 | 0.00 | 78 | 1014.5 |
| 20260502053024 | 50 | 253 | 10.0 | 15.0 | 0.00 | 0.00 | 0.00 | 78 | 1014.6 |
| 20260502052524 | 50 | 264 | 9.0 | 15.0 | 0.00 | 0.00 | 0.00 | 78 | 1014.7 |
| 20260502052024 | 50 | 281 | 9.0 | 16.0 | 0.00 | 0.00 | 0.00 | 77 | 1014.6 |
| 20260502051526 | 50 | 264 | 11.0 | 16.0 | 0.00 | 0.00 | 0.00 | 77 | 1014.7 |
| 20260502051021 | 51 | 264 | 10.0 | 15.0 | 0.00 | 0.00 | 0.00 | 77 | 1014.8 |
| 20260502050522 | 51 | 248 | 8.0 | 15.0 | 0.00 | 0.00 | 0.00 | 77 | 1014.8 |
| 20260502050020 | 51 | 255 | 10.0 | 14.0 | 0.00 | 0.00 | 0.00 | 76 | 1014.8 |
| 20260502045520 | 51 | 253 | 8.0 | 14.0 | 0.00 | 0.00 | 0.00 | 76 | 1014.9 |
| 20260502045024 | 51 | 247 | 9.0 | 14.0 | 0.00 | 0.00 | 0.00 | 76 | 1015.0 |
| 20260502044519 | 51 | 249 | 9.0 | 13.0 | 0.00 | 0.00 | 0.00 | 76 | 1015.2 |
| 20260502044018 | 51 | 255 | 9.0 | 13.0 | 0.00 | 0.00 | 0.00 | 75 | 1015.1 |
| 20260502043518 | 51 | 257 | 8.0 | 12.0 | 0.00 | 0.00 | 0.00 | 76 | 1015.0 |
| 20260502043016 | 51 | 264 | 6.0 | 12.0 | 0.00 | 0.00 | 0.00 | 76 | 1014.9 |
| 20260502042515 | 51 | 253 | 9.0 | 12.0 | 0.00 | 0.00 | 0.00 | 75 | 1014.8 |
| 20260502042013 | 51 | 258 | 7.0 | 13.0 | 0.00 | 0.00 | 0.00 | 75 | 1014.8 |
| 20260502041515 | 51 | 259 | 10.0 | 16.0 | 0.00 | 0.00 | 0.00 | 74 | 1014.9 |
| 20260502041012 | 51 | 258 | 10.0 | 16.0 | 0.00 | 0.00 | 0.00 | 73 | 1014.9 |
| 20260502040511 | 51 | 269 | 10.0 | 15.0 | 0.00 | 0.00 | 0.00 | 72 | 1015.0 |
| 20260502040012 | 51 | 243 | 11.0 | 14.0 | 0.00 | 0.00 | 0.00 | 72 | 1014.9 |
| 20260502035511 | 50 | 259 | 9.0 | 12.0 | 0.00 | 0.00 | 0.00 | 73 | 1015.0 |
| 20260502035010 | 50 | 240 | 6.0 | 8.0 | 0.00 | 0.00 | 0.00 | 75 | 1015.1 |
| 20260502034510 | 50 | 243 | 4.0 | 6.0 | 0.00 | 0.00 | 0.00 | 76 | 1015.2 |
| 20260502034012 | 49 | 262 | 3.0 | 7.0 | 0.00 | 0.00 | 0.00 | 77 | 1015.2 |
| 20260502033510 | 49 | 306 | 4.0 | 7.0 | 0.00 | 0.00 | 0.00 | 77 | 1015.3 |
| 20260502033013 | 49 | 353 | 2.0 | 5.0 | 0.00 | 0.00 | 0.00 | 76 | 1015.4 |
| 20260502032509 | 50 | 3 | 3.0 | 8.0 | 0.00 | 0.00 | 0.00 | 75 | 1015.2 |
| 20260502032009 | 50 | 319 | 3.0 | 12.0 | 0.00 | 0.00 | 0.00 | 74 | 1015.3 |
| 20260502031509 | 50 | 270 | 8.0 | 12.0 | 0.00 | 0.00 | 0.00 | 75 | 1015.4 |
| 20260502031008 | 50 | 264 | 6.0 | 10.0 | 0.00 | 0.00 | 0.00 | 77 | 1015.4 |
| 20260502030508 | 50 | 275 | 4.0 | 7.0 | 0.00 | 0.00 | 0.00 | 77 | 1015.3 |
| 20260502030010 | 50 | 343 | 5.0 | 7.0 | 0.00 | 0.00 | 0.00 | 76 | 1015.4 |
| 20260502025507 | 51 | 332 | 3.0 | 7.0 | 0.00 | 0.00 | 0.00 | 74 | 1015.4 |
| 20260502025006 | 51 | 285 | 5.0 | 11.0 | 0.00 | 0.00 | 0.00 | 74 | 1015.2 |
| 20260502024511 | 52 | 292 | 5.0 | 12.0 | 0.00 | 0.00 | 0.00 | 75 | 1015.0 |
| 20260502024005 | 52 | 258 | 6.0 | 12.0 | 0.00 | 0.00 | 0.00 | 75 | 1014.9 |
| 20260502023506 | 51 | 265 | 6.0 | 11.0 | 0.00 | 0.00 | 0.00 | 74 | 1014.9 |
| 20260502023005 | 52 | 288 | 7.0 | 14.0 | 0.00 | 0.00 | 0.00 | 72 | 1015.0 |
| 20260502022503 | 52 | 272 | 8.0 | 15.0 | 0.00 | 0.00 | 0.00 | 72 | 1014.7 |
| 20260502022003 | 52 | 234 | 12.0 | 15.0 | 0.00 | 0.00 | 0.00 | 71 | 1014.6 |
| 20260502021503 | 51 | 257 | 12.0 | 15.0 | 0.00 | 0.00 | 0.00 | 73 | 1014.6 |
| 20260502021003 | 51 | 251 | 11.0 | 14.0 | 0.00 | 0.00 | 0.00 | 74 | 1014.6 |
| 20260502020503 | 51 | 257 | 11.0 | 14.0 | 0.00 | 0.00 | 0.00 | 73 | 1014.6 |
| 20260502020003 | 52 | 247 | 11.0 | 15.0 | 0.00 | 0.00 | 0.00 | 72 | 1014.6 |
| 20260502015503 | 52 | 248 | 12.0 | 16.0 | 0.00 | 0.00 | 0.00 | 72 | 1014.6 |
| 20260502015003 | 52 | 240 | 12.0 | 16.0 | 0.00 | 0.00 | 0.00 | 71 | 1014.6 |
| 20260502014512 | 52 | 249 | 11.0 | 15.0 | 0.00 | 0.00 | 0.00 | 72 | 1014.7 |
| 20260502014005 | 52 | 264 | 10.0 | 16.0 | 0.00 | 0.00 | 0.00 | 73 | 1014.7 |
| 20260502013504 | 52 | 257 | 10.0 | 16.0 | 0.00 | 0.00 | 0.00 | 72 | 1014.7 |
| 20260502013002 | 52 | 262 | 11.0 | 18.0 | 0.00 | 0.00 | 0.00 | 71 | 1014.8 |
| 20260502012502 | 52 | 266 | 13.0 | 18.0 | 0.00 | 0.00 | 0.00 | 71 | 1014.8 |
| 20260502012002 | 52 | 262 | 13.0 | 19.0 | 0.00 | 0.00 | 0.00 | 71 | 1014.8 |
| 20260502011502 | 52 | 270 | 14.0 | 19.0 | 0.00 | 0.00 | 0.00 | 70 | 1014.8 |
| 20260502011101 | 52 | 264 | 13.0 | 19.0 | 0.00 | 0.00 | 0.00 | 71 | 1014.8 |
| 20260502010501 | 52 | 272 | 14.0 | 20.0 | 0.00 | 0.00 | 0.00 | 70 | 1014.8 |
| 20260502005559 | 52 | 267 | 11.0 | 22.0 | 0.00 | 0.00 | 0.00 | 70 | 1014.6 |
| 20260502005059 | 52 | 292 | 15.0 | 22.0 | 0.00 | 0.00 | 0.00 | 69 | 1014.5 |
| 20260502004605 | 52 | 269 | 12.0 | 20.0 | 0.00 | 0.00 | 0.00 | 70 | 1014.5 |
| 20260502004059 | 52 | 287 | 14.0 | 21.0 | 0.00 | 0.00 | 0.00 | 69 | 1014.5 |
| 20260502003601 | 52 | 250 | 14.0 | 21.0 | 0.00 | 0.00 | 0.00 | 69 | 1014.4 |
| 20260502003058 | 52 | 252 | 15.0 | 21.0 | 0.00 | 0.00 | 0.00 | 69 | 1014.3 |
| 20260502002558 | 52 | 266 | 15.0 | 20.0 | 0.00 | 0.00 | 0.00 | 69 | 1014.2 |
| 20260502002058 | 52 | 284 | 14.0 | 24.0 | 0.00 | 0.00 | 0.00 | 69 | 1014.2 |
| 20260502001557 | 52 | 266 | 16.0 | 24.0 | 0.00 | 0.00 | 0.00 | 68 | 1014.1 |
| 20260502001101 | 52 | 259 | 17.0 | 22.0 | 0.00 | 0.00 | 0.00 | 68 | 1014.0 |
| 20260502000557 | 52 | 264 | 14.0 | 21.0 | 0.00 | 0.00 | 0.00 | 69 | 1013.9 |
| 20260502000106 | 52 | 260 | 14.0 | 21.0 | 0.00 | 0.00 | 0.00 | 68 | 1013.8 |
| 20260501235557 | 52 | 268 | 12.0 | 20.0 | 0.00 | 0.00 | 0.00 | 69 | 1013.7 |
| 20260501235056 | 53 | 251 | 14.0 | 22.0 | 0.00 | 0.00 | 0.00 | 67 | 1013.6 |
| 20260501234556 | 53 | 233 | 15.0 | 22.0 | 0.00 | 0.00 | 0.00 | 65 | 1013.4 |
| 20260501234056 | 53 | 277 | 14.0 | 21.0 | 0.00 | 0.00 | 0.00 | 65 | 1013.3 |
| 20260501233556 | 53 | 274 | 15.0 | 21.0 | 0.00 | 0.00 | 0.00 | 65 | 1013.3 |
| 20260501233056 | 53 | 270 | 16.0 | 22.0 | 0.00 | 0.00 | 0.00 | 65 | 1013.3 |
| 20260501232555 | 53 | 262 | 12.0 | 24.0 | 0.00 | 0.00 | 0.00 | 65 | 1013.3 |
| 20260501232055 | 54 | 271 | 17.0 | 24.0 | 0.00 | 0.00 | 0.00 | 64 | 1013.3 |
| 20260501231555 | 54 | 273 | 16.0 | 24.0 | 0.00 | 0.00 | 0.00 | 63 | 1013.2 |
| 20260501231055 | 54 | 251 | 15.0 | 23.0 | 0.00 | 0.00 | 0.00 | 64 | 1013.2 |
| 20260501230555 | 54 | 276 | 16.0 | 23.0 | 0.00 | 0.00 | 0.00 | 66 | 1013.1 |
| 20260501230105 | 55 | 278 | 14.0 | 23.0 | 0.00 | 0.00 | 0.00 | 65 | 1013.0 |
| 20260501225554 | 56 | 264 | 15.0 | 21.0 | 0.00 | 0.00 | 0.00 | 62 | 1013.0 |
| 20260501225054 | 56 | 257 | 15.0 | 20.0 | 0.00 | 0.00 | 0.00 | 59 | 1013.0 |
| 20260501224555 | 56 | 270 | 13.0 | 19.0 | 0.00 | 0.00 | 0.00 | 58 | 1012.8 |
| 20260501224054 | 56 | 260 | 13.0 | 20.0 | 0.00 | 0.00 | 0.00 | 60 | 1012.8 |
| 20260501223555 | 56 | 272 | 15.0 | 21.0 | 0.00 | 0.00 | 0.00 | 59 | 1012.9 |
| 20260501223100 | 56 | 255 | 15.0 | 20.0 | 0.00 | 0.00 | 0.00 | 57 | 1012.7 |
| 20260501222553 | 57 | 273 | 14.0 | 21.0 | 0.00 | 0.00 | 0.00 | 57 | 1012.7 |
| 20260501222053 | 57 | 262 | 13.0 | 21.0 | 0.00 | 0.00 | 0.00 | 56 | 1012.8 |
| 20260501221558 | 58 | 257 | 14.0 | 18.0 | 0.00 | 0.00 | 0.00 | 54 | 1012.7 |
| 20260501221052 | 58 | 262 | 11.0 | 18.0 | 0.00 | 0.00 | 0.00 | 54 | 1012.8 |
| 20260501220552 | 58 | 250 | 12.0 | 19.0 | 0.00 | 0.00 | 0.00 | 54 | 1012.7 |
| 20260501220100 | 58 | 262 | 13.0 | 19.0 | 0.00 | 0.00 | 0.00 | 55 | 1012.8 |
| 20260501215552 | 58 | 271 | 13.0 | 18.0 | 0.00 | 0.00 | 0.00 | 54 | 1012.8 |
| 20260501215052 | 58 | 244 | 10.0 | 17.0 | 0.00 | 0.00 | 0.00 | 53 | 1012.8 |
| 20260501214552 | 58 | 251 | 12.0 | 17.0 | 0.00 | 0.00 | 0.00 | 54 | 1012.8 |
| 20260501214051 | 58 | 270 | 12.0 | 17.0 | 0.00 | 0.00 | 0.00 | 54 | 1012.6 |
| 20260501213554 | 58 | 268 | 11.0 | 17.0 | 0.00 | 0.00 | 0.00 | 54 | 1012.7 |
| 20260501213051 | 58 | 265 | 9.0 | 17.0 | 0.00 | 0.00 | 0.00 | 54 | 1012.6 |
| 20260501212551 | 59 | 268 | 12.0 | 16.0 | 0.00 | 0.00 | 0.00 | 51 | 1012.6 |
| 20260501212050 | 60 | 249 | 10.0 | 17.0 | 0.00 | 0.00 | 0.00 | 41 | 1012.6 |
| 20260501211550 | 59 | 280 | 11.0 | 16.0 | 0.00 | 0.00 | 0.00 | 39 | 1012.4 |
| 20260501211050 | 59 | 268 | 10.0 | 17.0 | 0.00 | 0.00 | 0.00 | 39 | 1012.4 |
| 20260501210550 | 59 | 275 | 11.0 | 17.0 | 0.00 | 0.00 | 0.00 | 38 | 1012.5 |
| 20260501210050 | 59 | 309 | 11.0 | 16.0 | 0.00 | 0.00 | 0.00 | 39 | 1012.5 |
| 20260501205552 | 59 | 271 | 12.0 | 19.0 | 0.00 | 0.00 | 0.00 | 40 | 1012.5 |
| 20260501205049 | 59 | 305 | 13.0 | 21.0 | 0.00 | 0.00 | 0.00 | 39 | 1012.6 |
| 20260501204549 | 59 | 288 | 15.0 | 21.0 | 0.00 | 0.00 | 0.00 | 40 | 1012.5 |
| 20260501204048 | 59 | 287 | 13.0 | 21.0 | 0.00 | 0.00 | 0.00 | 39 | 1012.5 |
| 20260501203548 | 59 | 268 | 12.0 | 21.0 | 0.00 | 0.00 | 0.00 | 40 | 1012.6 |